QPF
0.00 0.00 0.00 0.00 0.00 0.00 0.00 0.00 0.00 0.00 0.00 0.00 0.00 0.00 0.00 0.00 0.00 0.00 0.00 0.00 0.00 0.00 0.00 0.00 0.00 0.00 0.00 0.00 0.00 0.00 0.00 0.00
0.03 0.00 0.00 0.00 0.00 0.00 0.00 0.00 0.00 0.00 0.00 0.00 0.00 0.00 0.00 0.00 0.00 0.00 0.00 0.00 0.00 0.00 0.00 0.00 0.00 0.00 0.00 0.00 0.00 0.00 0.00 0.00
0.07 0.00 0.00 0.00 0.00 0.00 0.00 0.00 0.00 0.00 0.00 0.00 0.00 0.00 0.00 0.00 0.00 0.00 0.00 0.00 0.00 0.00 0.00 0.00 0.00 0.00 0.00 0.00 0.00 0.00 0.00 0.00
0.10 0.04 0.00 0.00 0.00 0.00 0.00 0.00 0.00 0.00 0.00 0.00 0.00 0.00 0.00 0.00 0.00 0.00 0.00 0.00 0.00 0.00 0.00 0.00 0.00 0.00 0.00 0.00 0.00 0.00 0.00 0.00
0.09 0.06 0.01 0.00 0.00 0.00 0.00 0.00 0.00 0.00 0.00 0.00 0.00 0.00 0.00 0.00 0.00 0.00 0.00 0.00 0.00 0.00 0.00 0.00 0.00 0.00 0.00 0.00 0.00 0.00 0.00 0.00
0.01 0.02 0.01 0.01 0.00 0.00 0.00 0.00 0.00 0.00 0.00 0.00 0.00 0.00 0.00 0.00 0.00 0.00 0.00 0.00 0.00 0.00 0.00 0.00 0.00 0.00 0.00 0.00 0.00 0.00 0.00 0.00
0.03 0.04 0.05 0.02 0.01 0.02 0.00 0.00 0.00 0.00 0.00 0.00 0.00 0.00 0.00 0.00 0.00 0.00 0.00 0.00 0.00 0.00 0.00 0.00 0.00 0.00 0.00 0.00 0.00 0.00 0.00 0.00
0.04 0.03 0.03 0.02 0.00 0.03 0.00 0.00 0.00 0.00 0.00 0.00 0.00 0.00 0.00 0.00 0.00 0.00 0.00 0.00 0.00 0.00 0.00 0.00 0.00 0.00 0.00 0.00 0.00 0.00 0.00 0.00
0.01 0.04 0.03 0.03 0.02 0.06 0.01 0.00 0.00 0.00 0.00 0.00 0.00 0.00 0.00 0.00 0.00 0.00 0.00 0.00 0.00 0.00 0.00 0.00 0.00 0.00 0.00 0.00 0.00 0.00 0.00 0.00
0.00 0.01 0.02 0.05 0.04 0.05 0.01 0.00 0.00 0.00 0.00 0.00 0.00 0.00 0.00 0.00 0.00 0.00 0.00 0.00 0.00 0.00 0.00 0.00 0.00 0.00 0.00 0.00 0.00 0.00 0.00 0.00
0.00 0.00 0.02 0.07 0.05 0.06 0.01 0.00 0.00 0.00 0.00 0.00 0.00 0.01 0.00 0.00 0.00 0.00 0.00 0.00 0.00 0.00 0.00 0.00 0.00 0.00 0.00 0.00 0.00 0.00 0.00 0.00
0.00 0.00 0.03 0.08 0.02 0.03 0.02 0.00 0.00 0.00 0.01 0.01 0.00 0.00 0.00 0.00 0.00 0.00 0.00 0.00 0.00 0.00 0.00 0.00 0.00 0.00 0.00 0.00 0.00 0.00 0.00 0.00
0.00 0.00 0.04 0.03 0.01 0.02 0.02 0.01 0.00 0.00 0.01 0.01 0.00 0.00 0.00 0.00 0.00 0.00 0.00 0.00 0.00 0.00 0.00 0.00 0.00 0.00 0.00 0.00 0.00 0.00 0.00 0.00
0.00 0.00 0.00 0.01 0.00 0.00 0.00 0.00 0.02 0.01 0.01 0.01 0.00 0.00 0.00 0.00 0.00 0.00 0.00 0.00 0.00 0.00 0.00 0.00 0.00 0.00 0.00 0.00 0.00 0.00 0.00 0.00
0.00 0.00 0.00 0.00 0.00 0.00 0.00 0.00 0.01 0.00 0.01 0.00 0.00 0.00 0.00 0.00 0.00 0.00 0.00 0.00 0.00 0.00 0.00 0.00 0.00 0.00 0.00 0.00 0.00 0.00 0.00 0.00
0.00 0.00 0.00 0.00 0.00 0.00 0.00 0.00 0.00 0.00 0.00 0.00 0.00 0.00 0.00 0.00 0.00 0.00 0.00 0.00 0.00 0.00 0.00 0.00 0.00 0.00 0.00 0.00 0.00 0.00 0.00 0.00
0.00 0.00 0.00 0.00 0.00 0.00 0.00 0.00 0.00 0.00 0.00 0.00 0.00 0.00 0.00 0.00 0.00 0.00 0.00 0.00 0.00 0.00 0.00 0.00 0.00 0.00 0.00 0.00 0.00 0.00 0.00 0.00
0.00 0.00 0.00 0.00 0.00 0.00 0.00 0.00 0.00 0.00 0.00 0.00 0.00 0.00 0.00 0.00 0.00 0.00 0.00 0.00 0.00 0.00 0.00 0.00 0.00 0.00 0.00 0.00 0.00 0.00 0.00 0.00
0.00 0.00 0.00 0.00 0.00 0.00 0.00 0.00 0.00 0.00 0.00 0.00 0.00 0.00 0.00 0.00 0.00 0.00 0.00 0.00 0.00 0.00 0.00 0.00 0.00 0.00 0.00 0.00 0.00 0.00 0.00 0.00
MSLP
1016.77 1017.37 1018.06 1019.08 1019.82 1020.91 1021.85 1022.36 1022.54 1022.35 1023.04 1023.59 1024.02 1024.62 1025.09 1025.42 1025.86 1026.15 1026.23 1026.37 1026.66 1026.96 1027.37 1027.68 1027.74 1028.03 1028.43 1028.51 1028.64 1028.59 1028.80 1028.80
1018.73 1017.12 1018.12 1018.99 1019.91 1020.88 1021.59 1022.20 1022.55 1022.48 1023.12 1023.54 1024.18 1024.76 1025.23 1025.73 1025.86 1026.12 1026.37 1026.55 1026.81 1027.01 1027.55 1027.83 1027.99 1028.47 1028.88 1028.88 1029.04 1029.16 1029.31 1029.17
1018.40 1017.24 1017.72 1018.53 1019.93 1020.73 1021.58 1021.97 1022.32 1022.46 1022.91 1023.28 1023.76 1024.39 1024.98 1025.43 1025.85 1026.25 1026.54 1026.72 1026.86 1027.32 1027.79 1028.07 1028.40 1028.80 1029.17 1029.43 1029.66 1029.83 1029.99 1030.01
1018.23 1017.99 1017.66 1018.28 1019.16 1019.93 1021.21 1021.73 1021.90 1022.21 1022.72 1023.07 1023.67 1024.16 1024.93 1025.62 1025.95 1026.47 1026.67 1026.79 1027.20 1027.44 1027.73 1028.19 1028.80 1029.07 1029.75 1030.10 1030.30 1030.43 1030.85 1030.72
1017.91 1018.39 1017.95 1018.24 1018.55 1019.23 1020.36 1021.41 1021.64 1021.91 1022.36 1022.79 1023.34 1023.86 1024.63 1025.30 1025.82 1026.36 1026.76 1026.90 1027.35 1027.54 1027.92 1028.53 1029.12 1029.48 1030.02 1030.30 1030.62 1030.93 1031.05 1031.46
1015.79 1016.41 1016.92 1017.44 1017.91 1018.52 1019.85 1020.78 1021.45 1021.69 1022.41 1022.55 1023.07 1023.76 1024.20 1024.98 1025.65 1026.35 1026.80 1027.26 1027.43 1027.75 1028.35 1028.94 1029.44 1029.82 1030.34 1030.70 1031.05 1031.27 1031.48 1031.75
1013.94 1015.46 1016.88 1017.21 1017.91 1018.88 1019.20 1020.15 1020.99 1021.50 1022.04 1022.36 1022.78 1023.40 1024.02 1024.83 1025.60 1026.32 1026.85 1027.44 1027.76 1028.22 1028.76 1029.30 1029.72 1030.11 1030.58 1031.04 1031.26 1031.45 1031.81 1031.95
1014.36 1015.17 1015.70 1016.12 1017.13 1018.09 1018.66 1019.30 1020.32 1021.06 1021.54 1022.02 1022.29 1022.83 1023.48 1024.25 1025.01 1025.83 1026.64 1027.31 1027.91 1028.58 1028.96 1029.57 1029.97 1030.30 1030.72 1031.04 1031.43 1031.67 1031.88 1032.26
1013.49 1014.07 1014.47 1015.61 1016.63 1017.58 1018.26 1018.71 1019.47 1020.44 1021.09 1021.65 1022.02 1022.46 1023.19 1023.72 1024.36 1025.11 1025.81 1026.61 1027.37 1028.32 1029.00 1029.54 1029.99 1030.39 1030.79 1031.23 1031.63 1031.84 1032.04 1032.42
1012.27 1013.24 1014.47 1015.43 1016.08 1016.55 1017.10 1018.10 1018.83 1019.79 1020.56 1021.12 1021.62 1022.11 1022.73 1023.37 1024.02 1024.55 1025.16 1026.11 1027.41 1028.25 1028.84 1029.57 1030.18 1030.50 1030.91 1031.43 1031.93 1032.11 1032.27 1032.50
1011.58 1012.19 1013.47 1014.52 1015.52 1016.18 1016.71 1017.51 1018.10 1018.95 1020.05 1020.69 1021.20 1021.71 1022.40 1023.11 1023.75 1024.48 1025.28 1026.38 1027.39 1028.23 1029.00 1029.64 1030.21 1030.63 1031.07 1031.67 1032.06 1032.10 1032.38 1032.60
1011.04 1011.58 1012.67 1013.69 1014.67 1015.39 1016.25 1017.04 1017.72 1018.65 1019.44 1020.30 1021.01 1021.67 1022.31 1022.91 1023.73 1024.54 1025.31 1026.47 1027.35 1028.11 1028.80 1029.56 1030.24 1030.78 1031.21 1031.76 1032.11 1032.22 1032.51 1032.72
1011.68 1011.99 1012.77 1013.72 1014.55 1015.44 1015.78 1016.42 1017.13 1017.92 1018.87 1019.85 1020.70 1021.43 1022.22 1022.97 1023.79 1024.66 1025.44 1026.42 1027.35 1028.06 1028.71 1029.47 1030.18 1030.83 1031.42 1031.90 1032.17 1032.34 1032.60 1032.86
1011.79 1012.51 1013.02 1013.75 1014.51 1014.95 1015.48 1016.20 1017.02 1017.84 1018.61 1019.59 1020.48 1021.39 1022.15 1023.01 1023.91 1024.85 1025.56 1026.41 1027.34 1028.16 1028.73 1029.59 1030.30 1030.99 1031.53 1031.89 1032.06 1032.23 1032.51 1032.85
1011.65 1012.36 1012.84 1013.37 1013.95 1014.55 1015.28 1016.12 1016.92 1017.71 1018.63 1019.51 1020.34 1021.29 1022.23 1023.23 1024.20 1024.99 1025.72 1026.53 1027.36 1028.20 1028.99 1029.69 1030.40 1031.02 1031.50 1031.83 1032.01 1032.26 1032.44 1032.73
1011.20 1012.03 1012.67 1013.09 1013.67 1014.27 1014.94 1015.70 1016.47 1017.25 1018.30 1019.29 1020.19 1021.19 1022.21 1023.30 1024.35 1025.18 1025.94 1026.66 1027.45 1028.36 1029.19 1029.92 1030.85 1031.42 1031.95 1032.55 1032.65 1032.73 1032.69 1032.58
1010.61 1011.44 1012.11 1012.81 1013.35 1013.99 1014.66 1015.34 1016.07 1016.87 1018.00 1019.12 1020.16 1021.20 1022.31 1023.44 1024.48 1025.43 1026.16 1026.90 1027.74 1028.57 1029.48 1030.25 1031.15 1031.68 1032.24 1032.50 1032.78 1033.01 1032.97 1032.81
1010.11 1010.85 1011.63 1012.56 1013.33 1013.84 1014.70 1015.29 1015.91 1016.87 1018.00 1019.11 1020.08 1021.17 1022.39 1023.59 1024.44 1025.47 1026.33 1027.04 1027.88 1028.80 1029.63 1030.47 1031.43 1032.19 1032.33 1032.53 1032.64 1032.99 1033.10 1033.03
1009.45 1010.32 1011.25 1012.28 1013.04 1013.94 1014.73 1015.45 1016.23 1017.05 1018.11 1019.20 1020.22 1021.23 1022.35 1023.54 1024.40 1025.45 1026.49 1027.24 1027.96 1028.78 1029.72 1030.63 1031.46 1032.14 1032.37 1032.53 1032.59 1032.92 1033.02 1032.84
Thickness
5692 5691 5685 5675 5674 5664 5654 5651 5650 5651 5646 5641 5638 5633 5628 5625 5621 5616 5613 5610 5605 5601 5597 5593 5592 5586 5581 5578 5576 5576 5571 5571
5665 5690 5683 5676 5670 5661 5655 5650 5646 5648 5642 5637 5633 5627 5624 5618 5616 5611 5607 5604 5600 5596 5592 5589 5585 5580 5574 5571 5569 5569 5566 5565
5667 5686 5687 5680 5666 5661 5653 5649 5645 5645 5639 5636 5632 5626 5622 5615 5611 5606 5602 5598 5595 5590 5586 5584 5576 5572 5566 5564 5561 5560 5559 5557
5664 5670 5680 5677 5670 5666 5652 5646 5645 5643 5637 5633 5628 5624 5617 5610 5606 5602 5597 5593 5588 5585 5581 5576 5571 5568 5559 5555 5553 5551 5547 5548
5665 5664 5669 5670 5671 5666 5655 5646 5644 5641 5635 5632 5627 5623 5615 5609 5604 5599 5593 5588 5583 5579 5574 5568 5562 5559 5553 5548 5545 5544 5541 5535
5684 5678 5678 5674 5670 5666 5655 5647 5641 5639 5632 5631 5625 5620 5615 5609 5602 5594 5588 5582 5577 5571 5565 5560 5555 5551 5545 5541 5539 5537 5535 5530
5698 5685 5673 5676 5668 5656 5655 5647 5641 5636 5630 5627 5623 5618 5612 5605 5598 5589 5583 5576 5570 5563 5557 5551 5547 5543 5538 5535 5532 5531 5527 5522
5681 5679 5681 5679 5665 5655 5653 5648 5641 5634 5629 5625 5623 5618 5613 5605 5599 5590 5580 5571 5564 5556 5551 5546 5541 5537 5533 5530 5527 5524 5521 5515
5685 5682 5682 5674 5666 5656 5651 5647 5642 5634 5628 5623 5621 5617 5611 5605 5598 5592 5582 5571 5562 5554 5547 5541 5535 5530 5528 5524 5521 5518 5514 5509
5695 5692 5678 5671 5664 5659 5656 5648 5644 5635 5628 5623 5618 5614 5609 5602 5594 5589 5581 5569 5556 5548 5544 5536 5529 5525 5522 5518 5513 5510 5507 5502
5703 5695 5684 5676 5668 5660 5657 5651 5646 5638 5627 5622 5617 5611 5603 5597 5590 5581 5572 5561 5551 5545 5538 5531 5525 5520 5516 5512 5506 5503 5499 5495
5703 5701 5691 5682 5674 5665 5657 5652 5647 5638 5628 5619 5613 5605 5597 5592 5584 5575 5566 5555 5547 5541 5533 5526 5519 5514 5510 5505 5500 5496 5492 5486
5692 5691 5684 5678 5670 5661 5658 5652 5646 5639 5629 5619 5609 5602 5595 5586 5578 5569 5559 5550 5541 5534 5528 5520 5514 5508 5503 5498 5493 5489 5485 5479
5686 5681 5677 5671 5667 5663 5657 5649 5640 5632 5626 5616 5606 5597 5590 5580 5571 5561 5552 5544 5536 5528 5522 5514 5508 5502 5496 5492 5487 5483 5478 5472
5681 5675 5671 5668 5665 5660 5652 5642 5634 5628 5619 5611 5603 5593 5583 5572 5563 5554 5546 5538 5530 5522 5515 5508 5502 5495 5490 5485 5481 5477 5471 5465
5680 5671 5666 5661 5659 5655 5650 5641 5633 5625 5616 5607 5597 5587 5577 5566 5556 5547 5539 5532 5524 5516 5508 5502 5493 5488 5482 5476 5472 5468 5463 5459
5680 5673 5667 5659 5653 5647 5645 5638 5630 5621 5612 5600 5591 5582 5571 5559 5549 5540 5533 5526 5518 5510 5502 5496 5485 5479 5473 5469 5465 5459 5454 5450
5674 5671 5663 5654 5648 5642 5634 5629 5624 5615 5604 5594 5585 5576 5564 5552 5544 5535 5527 5520 5513 5504 5496 5488 5477 5471 5465 5461 5457 5452 5446 5441
5671 5668 5659 5650 5642 5634 5627 5621 5614 5607 5597 5586 5576 5567 5556 5546 5538 5529 5520 5513 5506 5498 5490 5480 5470 5463 5457 5454 5450 5444 5439 5435